Wetbulb
50.34 47.43 44.52 47.09 47.66 49.57 48.40 47.89 47.80 49.66 52.87 50.40 46.51 50.68 52.69 54.78 56.28 57.28 57.79 58.55 58.08 60.71 62.41 63.06 64.91 66.51 64.90 63.45 65.19 64.66 61.94 65.64 66.70 65.87 64.07 64.28 62.85 62.52 62.50 63.25 62.63 61.93 63.17 62.29
48.20 45.02 50.39 50.92 51.32 49.45 49.10 46.94 45.92 48.29 50.70 50.63 51.60 50.61 53.39 55.50 54.76 56.44 57.07 58.31 58.45 59.71 61.65 64.14 62.24 60.26 59.93 61.41 60.98 60.56 61.06 60.87 65.83 66.88 66.52 66.01 64.27 64.18 63.52 63.92 63.02 62.61 62.83 61.13
45.82 49.50 52.71 51.55 49.29 49.16 45.83 45.96 45.16 45.18 48.36 48.54 49.85 48.04 50.69 54.38 55.45 55.80 59.46 58.93 60.26 60.33 60.90 61.74 62.51 58.92 59.01 59.30 60.77 60.56 59.97 61.53 66.05 67.61 66.01 65.69 65.34 63.69 61.72 59.06 59.24 60.08 60.89 60.61
47.07 50.83 50.79 49.01 50.11 48.89 45.63 50.76 50.78 49.77 46.82 41.34 49.05 40.05 47.19 50.75 51.58 54.32 53.84 59.97 60.96 60.53 60.94 58.89 61.22 58.90 58.79 59.19 60.59 60.85 61.81 63.50 65.09 65.36 65.83 64.12 62.54 60.43 57.96 57.82 57.92 57.30 58.09 56.71
47.66 48.67 49.26 48.94 50.44 51.61 49.65 52.73 50.62 49.76 45.08 44.70 45.84 42.51 45.25 50.62 48.87 51.75 53.44 54.84 57.16 60.42 60.49 60.89 60.95 61.27 61.77 60.01 60.15 60.64 63.34 62.56 61.91 64.48 65.43 63.45 60.77 58.94 58.88 57.91 56.40 55.91 57.20 57.65
49.23 52.28 51.39 49.67 53.97 53.79 54.19 50.93 48.14 46.90 43.80 39.38 44.63 43.86 43.52 44.85 47.30 49.63 52.52 56.18 58.40 59.73 60.05 60.63 61.54 61.03 60.20 60.70 61.25 63.63 60.68 59.63 61.23 65.07 64.34 63.55 59.97 57.52 56.37 55.39 54.89 54.87 54.68 56.81
50.73 50.28 52.61 53.12 49.26 52.86 50.51 44.97 37.64 37.83 38.29 37.68 45.18 43.73 44.00 48.89 52.12 51.29 52.73 55.22 56.34 56.73 57.68 58.93 58.42 58.83 59.50 59.96 60.09 61.16 62.02 61.54 63.38 64.93 61.26 59.42 56.93 56.15 54.86 54.14 53.92 54.81 54.58 53.90
44.83 44.21 51.61 55.43 50.96 48.94 48.55 44.79 38.82 33.82 35.77 38.05 45.46 40.01 44.16 51.25 53.12 55.00 55.66 56.39 56.24 55.62 56.02 57.31 58.10 58.63 57.69 57.98 57.92 57.30 58.82 57.76 59.04 58.42 57.08 57.19 56.80 57.21 57.03 55.45 53.96 52.55 54.72 54.90
44.89 47.63 54.50 55.27 55.00 52.22 49.16 44.82 47.71 41.61 40.81 38.57 40.23 44.32 48.72 52.58 52.40 53.23 53.52 54.21 54.16 55.72 57.51 56.61 57.42 57.17 57.58 56.71 56.17 56.12 56.62 56.03 56.61 56.36 55.53 55.40 57.30 55.77 53.07 52.15 51.93 52.80 52.80 52.31
50.20 45.16 53.27 55.09 55.00 53.85 49.76 51.78 43.07 43.10 34.12 32.44 39.55 40.10 40.99 47.06 49.01 51.28 51.73 52.31 53.76 54.81 56.20 56.82 56.70 56.05 55.97 55.48 55.68 55.68 54.94 54.81 55.32 54.94 54.51 54.19 53.09 52.64 51.78 51.14 50.94 49.61 49.45 49.72
50.72 47.41 49.41 52.49 49.48 47.34 47.54 46.76 47.63 44.05 40.70 35.03 34.27 37.92 46.54 46.93 49.13 49.44 50.42 51.51 52.16 52.32 54.83 55.58 56.66 56.71 55.87 55.25 55.55 55.08 54.70 54.61 54.14 53.63 52.86 52.00 51.70 51.94 51.22 50.10 49.48 49.48 48.23 47.98
52.63 46.84 44.14 47.58 51.99 53.89 50.14 47.82 44.74 39.62 39.62 41.65 39.03 39.23 49.91 49.26 50.46 50.61 51.32 53.15 56.19 54.83 54.13 54.80 56.54 56.06 55.36 54.41 54.58 54.28 54.09 53.28 52.93 52.58 51.75 51.19 50.67 49.82 48.59 48.68 48.39 48.32 47.55 47.69
50.30 44.54 40.60 43.84 47.77 49.75 48.34 49.63 48.59 45.15 43.41 41.35 38.49 39.65 51.39 52.23 51.96 52.91 51.70 54.48 54.08 53.51 52.71 53.33 52.61 54.13 53.92 54.71 55.08 54.41 54.02 53.02 52.36 51.84 50.07 48.80 48.04 47.42 46.80 47.14 47.41 47.50 47.68 47.71
52.83 45.32 43.41 41.04 44.06 47.86 47.12 49.93 50.49 45.96 40.66 43.25 44.17 44.46 48.00 50.02 49.95 50.53 52.41 52.64 52.48 51.93 51.68 51.09 51.48 51.87 52.52 54.61 55.14 54.74 53.38 52.25 51.42 50.33 48.57 47.49 47.01 46.76 47.12 47.19 47.28 47.57 47.78 47.41
51.71 44.03 47.14 47.79 50.81 51.09 50.19 50.46 50.58 46.82 47.18 42.88 44.30 45.77 47.87 49.50 50.31 51.37 53.02 51.78 51.56 51.16 50.74 50.76 51.87 51.73 52.51 53.04 54.40 54.46 52.88 51.68 50.65 50.69 48.17 47.23 47.43 47.74 47.61 47.52 47.62 47.64 47.71 47.91
50.66 44.94 47.20 47.10 51.35 50.72 49.11 50.27 49.39 49.49 49.05 47.32 47.76 45.84 50.48 51.55 50.96 52.03 51.50 51.51 50.90 50.90 50.86 50.99 53.57 53.73 53.44 53.76 53.25 53.11 52.61 51.79 50.59 49.09 48.41 48.47 48.03 48.22 47.81 48.17 48.01 47.73 47.57 47.51
50.33 46.27 44.01 41.52 49.20 48.59 44.12 48.82 49.45 49.88 50.77 48.12 43.81 47.50 50.85 50.16 51.52 50.21 50.51 51.62 50.94 50.24 49.76 51.37 53.25 53.40 53.16 52.38 52.02 51.48 51.39 51.12 49.23 48.68 49.07 48.91 48.33 48.02 47.86 48.65 48.08 47.24 46.99 46.63
48.75 46.88 44.91 41.55 44.20 36.59 47.57 54.58 53.92 51.69 51.83 51.62 51.01 51.61 52.05 51.48 51.66 52.34 51.96 50.60 50.40 49.77 49.79 51.83 53.10 53.70 53.55 52.00 51.93 51.81 51.31 50.13 49.62 48.31 48.49 49.45 49.04 48.91 48.42 49.31 46.87 46.98 46.54 46.36
49.85 47.69 43.65 41.46 40.11 45.75 49.73 51.83 50.62 48.21 48.44 52.88 51.92 52.86 53.25 53.83 53.02 51.92 53.03 51.88 50.21 49.31 50.18 52.74 54.11 53.74 51.64 51.89 51.83 51.56 50.57 50.30 49.56 48.42 48.86 48.84 48.77 47.91 48.15 47.42 46.58 46.56 46.83 46.69
51.43 49.30 45.36 41.69 39.04 38.27 46.45 53.67 57.11 53.26 44.55 53.90 53.88 52.80 52.88 52.20 45.30 47.69 51.88 52.42 51.04 51.16 52.29 54.19 54.23 53.39 52.33 51.31 50.96 50.26 48.97 49.03 49.86 48.56 49.07 48.28 47.77 46.95 46.55 46.73 47.07 46.51 46.19 47.12
45.43 45.22 41.44 40.63 40.15 43.97 51.76 54.88 55.88 42.56 42.09 53.44 53.89 52.75 51.83 49.45 49.77 51.90 52.02 50.99 50.41 50.67 53.42 54.42 53.39 52.35 52.18 51.52 51.04 49.28 49.33 50.37 49.57 49.61 48.51 48.32 47.81 47.36 47.01 46.89 46.94 46.87 46.78 46.94
45.10 42.86 41.15 41.58 37.93 37.75 54.38 53.76 47.56 49.87 52.78 54.58 53.88 52.82 52.19 52.00 51.94 52.16 51.77 50.37 50.75 50.93 52.76 54.44 52.89 51.99 51.90 51.70 51.28 49.54 49.22 51.37 49.38 48.93 49.87 47.38 47.35 47.87 48.21 46.42 46.58 47.10 46.89 46.33
46.24 47.66 44.83 44.72 43.73 49.53 52.57 51.74 54.91 53.20 54.56 54.52 54.19 53.42 52.84 51.96 51.90 51.68 50.67 49.77 49.73 50.84 51.58 54.00 52.60 51.44 51.35 51.35 51.41 49.07 48.93 49.94 49.91 48.43 48.60 49.53 48.88 48.28 46.64 45.65 44.18 44.03 44.76 44.97
49.48 51.42 45.95 45.22 47.97 51.09 52.37 54.73 55.14 56.57 55.79 55.17 54.26 53.43 53.64 51.68 51.80 50.43 49.53 48.49 48.41 50.73 51.56 52.36 52.77 50.88 50.90 51.66 51.37 50.13 50.34 51.03 49.59 47.24 45.77 46.47 45.12 46.32 45.75 44.05 45.16 42.38 42.03 42.96
47.83 48.45 46.81 45.93 49.04 52.11 53.64 55.51 56.66 57.12 56.98 55.59 54.71 54.27 53.43 52.34 50.63 50.13 48.86 48.80 50.14 51.96 52.21 52.48 51.98 50.91 50.80 53.10 50.36 50.27 50.50 49.72 48.47 46.95 46.48 45.33 45.13 45.16 45.53 45.03 42.83 44.04 41.26 41.61
48.49 46.32 45.52 44.23 49.22 49.58 51.71 55.58 57.06 55.52 55.19 54.87 54.07 53.18 53.34 52.22 50.43 50.65 49.56 49.64 51.76 51.84 51.91 51.66 51.69 50.95 52.98 51.81 51.83 50.14 50.47 49.57 47.66 46.99 45.95 45.79 45.35 45.42 45.83 45.74 46.03 40.54 40.39 40.21
MSLP
1008.58 1009.31 1009.95 1009.68 1009.79 1009.57 1009.38 1009.40 1009.50 1009.23 1008.99 1009.74 1011.03 1011.44 1011.98 1011.59 1011.57 1012.81 1013.95 1014.27 1014.12 1014.71 1014.57 1016.59 1017.23 1016.82 1016.43 1017.25 1016.68 1015.87 1015.46 1015.38 1017.34 1016.55 1016.77 1016.61 1017.01 1016.32 1015.96 1015.87 1015.76 1015.77 1015.86 1016.15
1009.31 1009.58 1008.83 1009.06 1009.04 1009.21 1009.73 1009.99 1009.97 1009.60 1009.35 1010.58 1011.41 1012.72 1012.81 1012.87 1013.12 1013.19 1014.21 1014.55 1013.91 1013.97 1015.05 1016.75 1017.83 1017.29 1017.01 1016.99 1016.34 1015.86 1015.73 1015.77 1016.27 1016.03 1016.32 1016.57 1016.17 1016.11 1015.61 1015.38 1015.41 1015.74 1015.71 1015.93
1009.75 1008.78 1008.43 1008.67 1008.63 1009.01 1009.57 1009.77 1009.90 1010.17 1010.18 1011.23 1012.03 1013.74 1013.92 1013.56 1013.43 1014.05 1014.04 1014.36 1015.10 1014.65 1016.64 1017.30 1017.84 1018.25 1017.66 1016.73 1016.27 1015.95 1015.29 1014.66 1015.41 1015.82 1016.03 1015.91 1015.65 1015.89 1016.31 1015.94 1015.69 1015.64 1015.62 1015.80
1009.30 1007.92 1008.23 1008.34 1008.73 1009.06 1009.64 1009.82 1009.97 1010.39 1011.09 1012.29 1012.87 1015.12 1015.01 1014.45 1013.90 1013.48 1013.71 1014.75 1015.06 1016.23 1016.87 1017.63 1018.41 1017.73 1017.26 1016.67 1016.17 1016.67 1016.20 1016.11 1015.36 1015.07 1015.68 1015.74 1015.70 1016.34 1016.52 1016.25 1016.35 1016.36 1016.28 1016.36
1009.11 1008.37 1008.25 1008.53 1008.59 1008.79 1009.97 1009.78 1010.91 1011.31 1012.64 1013.57 1014.51 1015.36 1016.12 1014.98 1014.71 1014.49 1014.73 1014.41 1015.10 1016.47 1017.43 1017.83 1017.66 1017.41 1016.71 1016.53 1016.50 1017.23 1016.88 1016.47 1016.19 1016.45 1015.93 1015.95 1016.08 1016.75 1016.94 1016.98 1017.03 1017.23 1016.96 1016.59
1009.17 1008.20 1008.08 1008.45 1009.27 1009.51 1009.98 1010.76 1012.11 1012.89 1013.91 1015.57 1015.79 1015.91 1016.43 1016.15 1016.09 1015.53 1015.61 1015.82 1016.35 1017.28 1017.79 1018.19 1017.73 1017.51 1017.25 1017.18 1017.19 1017.40 1017.19 1017.12 1016.88 1016.60 1016.04 1015.91 1016.67 1017.07 1017.39 1017.98 1018.05 1017.63 1017.21 1016.94
1009.76 1009.31 1009.02 1008.86 1009.83 1010.42 1010.84 1012.63 1014.51 1015.50 1016.29 1017.26 1016.67 1016.53 1016.60 1016.29 1016.21 1016.14 1016.40 1017.50 1018.20 1018.60 1018.89 1018.47 1018.51 1018.23 1018.23 1018.36 1018.03 1017.56 1017.33 1017.16 1017.13 1016.83 1016.97 1017.12 1017.65 1018.15 1018.33 1018.26 1018.09 1017.79 1017.45 1017.35
1011.51 1010.97 1010.87 1010.51 1010.88 1011.98 1012.95 1014.19 1015.94 1017.17 1017.99 1018.06 1017.17 1017.43 1017.24 1016.66 1017.24 1017.13 1017.57 1018.04 1018.53 1019.33 1020.10 1020.67 1019.57 1019.34 1019.29 1018.71 1018.18 1017.59 1017.30 1017.69 1017.70 1017.81 1017.92 1018.04 1018.27 1018.47 1018.55 1018.51 1018.51 1018.31 1018.04 1017.71
1012.07 1012.42 1012.30 1011.74 1012.25 1012.31 1013.84 1014.82 1015.81 1017.01 1018.05 1018.62 1018.95 1018.18 1017.55 1017.98 1018.27 1018.09 1018.53 1018.54 1019.23 1019.07 1018.50 1019.66 1019.85 1019.35 1019.05 1018.93 1018.57 1018.31 1018.20 1018.42 1018.25 1018.45 1018.69 1019.01 1019.14 1019.21 1019.21 1019.00 1018.78 1018.61 1018.36 1017.99
1011.99 1012.80 1013.23 1012.88 1012.88 1013.39 1014.30 1015.25 1016.43 1017.19 1018.77 1019.76 1019.83 1019.44 1019.57 1019.99 1020.09 1019.81 1019.48 1019.52 1019.46 1018.88 1018.73 1019.36 1019.74 1019.57 1019.35 1019.40 1019.10 1018.81 1018.91 1019.07 1019.09 1019.30 1019.57 1019.77 1019.72 1019.57 1019.39 1019.19 1019.01 1018.81 1018.49 1018.06
1011.77 1013.21 1014.23 1013.86 1014.95 1015.09 1015.35 1015.86 1016.67 1017.67 1018.78 1019.73 1020.67 1021.08 1020.85 1020.73 1020.77 1020.33 1020.15 1019.94 1019.72 1019.57 1019.73 1019.71 1019.80 1019.63 1019.55 1019.47 1019.26 1019.15 1019.32 1019.45 1019.62 1019.87 1020.12 1020.05 1019.85 1019.65 1019.49 1019.31 1019.02 1018.74 1018.41 1018.02
1012.38 1014.65 1015.95 1015.95 1015.63 1015.87 1015.97 1016.70 1017.51 1018.67 1019.36 1019.85 1020.57 1022.16 1022.14 1021.60 1020.90 1020.51 1020.31 1019.95 1019.89 1020.16 1020.09 1019.88 1020.17 1020.23 1019.94 1019.90 1019.89 1019.92 1019.91 1019.94 1020.29 1020.45 1020.41 1020.35 1020.23 1019.97 1019.71 1019.42 1019.11 1018.81 1018.46 1018.00
1012.67 1015.15 1016.55 1016.63 1016.15 1016.37 1016.21 1016.47 1017.15 1018.51 1019.41 1020.67 1022.15 1023.05 1022.90 1022.57 1021.45 1021.16 1020.77 1020.41 1020.44 1020.51 1020.55 1020.62 1020.59 1020.40 1020.44 1020.43 1020.31 1020.21 1020.29 1020.50 1020.47 1020.46 1020.46 1020.53 1020.49 1020.20 1019.93 1019.56 1019.25 1018.88 1018.55 1018.17
1012.85 1014.80 1015.86 1016.65 1016.25 1016.21 1016.54 1016.24 1016.67 1018.17 1019.67 1020.59 1021.10 1022.47 1022.87 1022.61 1022.13 1021.52 1020.89 1020.77 1020.69 1020.91 1021.04 1021.05 1020.92 1020.82 1020.77 1020.72 1020.66 1020.65 1020.76 1020.85 1020.90 1020.73 1020.82 1020.84 1020.66 1020.40 1020.05 1019.63 1019.36 1019.03 1018.73 1018.34
1013.69 1015.17 1015.40 1015.70 1015.82 1015.89 1015.95 1015.95 1016.51 1017.74 1018.57 1020.01 1020.75 1021.66 1022.14 1022.51 1022.38 1021.59 1021.37 1021.18 1021.06 1021.12 1021.11 1021.27 1021.39 1021.27 1021.13 1021.07 1021.02 1021.07 1021.12 1021.14 1021.06 1020.91 1020.99 1020.97 1020.72 1020.38 1020.01 1019.77 1019.53 1019.23 1018.81 1018.43
1014.39 1015.34 1015.61 1016.02 1015.75 1015.69 1016.09 1016.13 1016.19 1016.93 1018.25 1019.49 1020.61 1021.39 1021.61 1022.06 1022.00 1021.63 1021.45 1021.38 1021.30 1021.30 1021.32 1021.49 1021.53 1021.53 1021.47 1021.43 1021.43 1021.40 1021.44 1021.35 1021.20 1021.13 1021.12 1020.95 1020.75 1020.49 1020.21 1019.92 1019.78 1019.41 1019.00 1018.66
1015.16 1016.02 1016.76 1016.95 1016.54 1016.21 1016.59 1016.89 1016.73 1017.37 1018.03 1018.90 1019.96 1020.41 1021.14 1021.80 1021.67 1021.59 1021.51 1021.43 1021.52 1021.47 1021.59 1021.74 1021.81 1021.79 1021.77 1021.67 1021.60 1021.63 1021.65 1021.49 1021.42 1021.27 1021.21 1021.07 1020.97 1020.80 1020.49 1020.19 1020.04 1019.74 1019.42 1019.03
1015.48 1016.42 1017.43 1018.03 1017.39 1017.41 1017.21 1016.90 1016.69 1017.29 1018.24 1018.60 1019.37 1020.18 1020.65 1021.01 1021.17 1021.20 1021.12 1021.34 1021.57 1021.57 1021.74 1021.88 1021.94 1022.01 1022.07 1022.05 1021.97 1022.11 1021.92 1021.87 1021.60 1021.56 1021.38 1021.25 1021.19 1021.09 1020.68 1020.45 1020.37 1020.00 1019.71 1019.51
1015.44 1016.60 1018.34 1018.90 1018.91 1018.40 1017.56 1017.29 1017.40 1017.66 1019.00 1019.08 1019.37 1020.00 1020.61 1020.90 1021.03 1021.27 1021.24 1021.23 1021.39 1021.49 1021.65 1021.86 1021.99 1022.22 1022.36 1022.34 1022.36 1022.28 1022.16 1022.05 1021.83 1021.83 1021.63 1021.56 1021.45 1021.41 1021.14 1020.95 1020.71 1020.28 1019.99 1019.85
1016.20 1016.98 1018.40 1019.74 1019.71 1019.20 1018.00 1017.37 1017.15 1017.66 1018.93 1019.04 1019.16 1019.84 1020.31 1020.92 1021.66 1021.71 1021.50 1021.33 1021.41 1021.47 1021.64 1021.94 1022.07 1022.30 1022.28 1022.53 1022.45 1022.45 1022.45 1022.30 1022.19 1021.93 1021.93 1021.76 1021.68 1021.58 1021.47 1021.21 1020.88 1020.55 1020.24 1020.13
1017.26 1018.53 1019.76 1020.30 1020.19 1019.34 1017.90 1017.28 1017.38 1018.37 1019.12 1018.79 1019.05 1019.57 1020.41 1020.78 1020.97 1021.41 1021.60 1021.51 1021.49 1021.55 1021.76 1021.94 1022.14 1022.31 1022.36 1022.24 1022.31 1022.63 1022.57 1022.49 1022.35 1022.25 1022.08 1021.93 1021.85 1021.66 1021.52 1021.34 1021.07 1020.84 1020.53 1020.35
1017.39 1018.52 1019.93 1020.65 1020.13 1018.69 1017.35 1017.72 1017.75 1018.23 1018.32 1018.65 1019.33 1019.59 1020.13 1020.79 1021.39 1021.68 1021.73 1021.75 1021.70 1021.71 1021.93 1022.06 1022.36 1022.51 1022.48 1022.13 1022.43 1022.77 1022.74 1022.57 1022.47 1022.33 1022.20 1022.20 1022.07 1021.91 1021.72 1021.60 1021.42 1021.25 1021.03 1020.92
1017.04 1017.25 1018.25 1019.27 1018.22 1017.07 1016.86 1016.70 1016.91 1017.43 1017.89 1018.58 1019.01 1019.63 1020.13 1021.03 1021.57 1021.85 1022.01 1021.89 1021.89 1021.87 1021.97 1022.12 1022.33 1022.60 1022.63 1022.38 1022.55 1022.96 1022.90 1022.71 1022.59 1022.56 1022.48 1022.29 1022.18 1022.12 1022.05 1022.01 1021.97 1021.85 1021.70 1021.50
1016.27 1016.49 1017.29 1017.91 1017.22 1016.65 1016.43 1016.66 1016.77 1017.09 1017.75 1018.26 1018.76 1019.47 1020.20 1021.08 1021.59 1021.93 1022.03 1021.98 1022.01 1022.01 1022.07 1022.21 1022.55 1022.82 1022.82 1022.84 1022.89 1023.00 1022.89 1022.75 1022.78 1022.94 1022.91 1022.63 1022.61 1022.40 1022.33 1022.29 1022.26 1022.36 1022.27 1022.11
1016.53 1016.32 1017.16 1017.56 1017.11 1016.73 1016.74 1016.69 1016.98 1017.46 1017.81 1018.27 1018.73 1019.18 1020.00 1020.72 1021.50 1021.69 1021.95 1022.02 1022.09 1022.10 1022.11 1022.17 1022.46 1022.70 1022.80 1023.04 1023.23 1023.09 1023.01 1022.95 1023.16 1023.14 1023.12 1023.03 1022.86 1022.66 1022.57 1022.48 1022.56 1022.59 1022.50 1022.42
1016.57 1016.54 1016.87 1016.83 1016.53 1016.45 1016.57 1016.56 1016.87 1017.39 1017.90 1018.22 1018.90 1019.90 1020.29 1020.37 1021.15 1021.46 1021.86 1021.95 1022.05 1022.08 1022.09 1022.27 1022.44 1022.53 1022.68 1022.95 1023.10 1023.09 1023.05 1023.07 1023.27 1023.28 1023.23 1023.13 1022.99 1022.82 1022.70 1022.64 1022.57 1022.57 1022.45 1022.32
Wind_Speed
5 7 6 13 7 5 3 6 3 4 5 4 4 10 7 7 10 12 12 10 10 13 8 10 13 11 16 11 15 6 4 3 4 1 1 0 4 2 3 5 6 6 4 4
8 6 15 7 8 5 6 5 2 4 5 11 12 8 6 7 4 3 8 7 7 9 4 8 11 8 8 8 6 8 6 3 3 5 2 3 2 3 2 3 2 4 5 5
5 14 8 6 3 10 4 6 4 1 4 5 6 7 9 8 6 4 5 8 1 12 8 6 6 4 5 6 4 6 4 4 3 3 1 2 1 2 3 3 3 5 4 4
6 14 7 7 5 4 4 3 2 4 4 3 4 2 7 7 10 9 7 7 7 6 7 6 0 2 6 5 5 5 8 4 4 4 3 1 1 1 1 1 3 5 7 6
10 4 6 7 1 3 1 6 8 5 7 7 11 8 9 3 10 10 10 9 3 10 10 7 4 8 7 5 5 4 7 6 4 10 5 1 3 2 3 3 6 5 3 4
8 3 4 5 11 6 2 8 10 6 4 7 5 6 7 5 6 6 9 12 12 13 10 7 5 3 7 6 8 6 6 6 8 11 5 4 6 5 6 5 4 3 2 3
8 6 6 5 9 12 12 10 6 7 7 4 4 7 7 4 8 6 8 11 10 8 7 6 5 3 6 7 8 6 7 9 9 6 10 10 9 6 4 4 2 4 3 3
3 7 10 11 5 7 6 6 6 1 1 3 5 2 4 1 8 15 13 12 11 11 9 10 5 5 5 5 6 7 8 9 10 10 7 6 6 4 4 4 4 4 3 3
4 4 1 14 7 4 5 6 6 5 3 5 3 5 4 17 17 20 19 21 13 9 7 3 7 5 6 5 5 6 8 6 7 7 7 6 6 7 6 6 5 4 4 5
5 5 5 3 6 9 5 2 4 5 2 3 4 1 2 10 10 10 13 12 9 6 7 6 2 4 4 3 5 8 7 8 7 8 7 8 7 6 4 3 5 4 4 5
4 5 6 8 3 3 6 5 5 4 4 5 3 3 3 7 5 7 5 5 5 4 6 6 5 6 5 5 6 8 9 9 9 9 7 6 6 6 6 5 5 5 5 6
3 6 3 7 1 4 2 2 4 5 5 2 5 1 5 5 5 6 5 6 7 7 5 5 5 3 6 7 7 6 6 8 7 6 5 5 5 5 6 6 6 6 6 6
2 3 4 9 8 1 5 1 4 1 4 4 4 3 3 6 3 5 5 6 5 6 7 6 4 6 6 5 5 6 6 7 6 5 6 6 6 6 6 6 6 6 6 7
8 4 8 7 8 4 0 4 1 6 4 2 7 5 6 6 2 1 4 6 8 6 3 4 6 5 5 4 3 4 5 5 4 5 5 6 6 5 5 6 6 7 6 6
6 4 4 4 4 3 6 4 6 5 6 6 6 8 9 8 8 4 3 5 7 6 6 5 4 4 4 4 4 4 6 6 3 5 6 6 5 5 6 6 7 6 6 6
4 0 2 6 7 6 1 4 9 5 6 8 8 3 4 5 4 2 3 4 6 6 5 4 4 5 5 5 5 5 5 5 3 6 6 5 6 6 7 6 7 7 7 7
3 4 4 3 2 2 7 6 6 5 4 9 7 7 7 5 5 3 5 6 6 4 4 5 4 4 4 4 4 6 5 4 6 6 5 6 6 6 6 6 7 7 7 6
4 4 3 2 5 3 6 3 7 14 5 7 10 12 11 7 4 6 5 7 6 4 5 5 3 4 4 3 5 5 5 5 6 6 6 6 6 6 6 6 7 6 5 6
2 5 4 4 2 2 3 4 3 4 1 3 9 7 7 5 4 2 3 4 6 4 4 5 4 4 5 6 6 6 6 5 7 5 5 5 6 6 6 7 7 5 5 5
7 7 7 2 3 5 7 4 2 5 1 2 7 9 9 6 4 4 3 5 5 4 5 6 6 5 7 4 6 7 5 6 5 4 5 5 5 5 6 6 6 4 3 3
3 4 5 2 2 5 7 5 4 3 9 2 6 8 8 5 5 5 5 3 3 3 7 6 6 6 4 6 7 6 4 4 4 5 5 5 6 6 5 5 4 5 5 5
6 6 3 3 2 4 6 2 5 7 1 7 4 4 7 8 7 6 6 5 5 5 6 5 6 4 2 6 6 6 4 2 3 4 4 5 5 4 4 5 5 5 6 6
1 7 7 8 8 7 6 7 4 7 10 7 8 6 9 9 7 6 5 5 5 3 4 4 6 4 2 5 7 5 1 3 4 5 6 4 5 5 5 5 6 4 5 5
4 4 4 4 2 5 5 3 5 6 6 7 8 10 11 10 7 7 5 4 4 3 3 3 5 4 4 5 5 3 2 3 5 5 6 5 5 5 4 4 3 4 4 4
5 3 4 3 3 5 3 5 7 6 7 9 8 12 13 12 7 7 5 4 3 3 2 3 7 5 5 5 4 2 3 5 5 3 4 5 3 4 3 1 2 1 1 1
1 2 5 6 6 6 5 6 7 9 9 12 10 6 5 9 9 7 5 3 3 3 2 4 5 5 7 6 5 2 3 4 3 4 4 4 3 3 3 3 4 5 3 2
Wind_Direction
349 34 281 272 256 240 253 144 94 263 259 19 323 50 12 351 82 123 156 183 172 205 216 68 61 113 100 132 136 198 221 102 309 277 241 189 240 236 259 199 213 230 242 253
3 286 264 241 279 113 95 117 224 282 271 87 76 31 344 30 74 207 158 185 212 205 43 75 82 85 104 153 157 241 196 125 269 253 228 238 192 240 234 284 313 253 268 223
193 252 329 272 17 85 40 63 7 274 348 96 101 35 9 328 345 95 88 179 176 210 81 80 105 163 187 139 161 225 301 284 25 240 305 338 312 61 17 2 20 17 0 304
242 277 222 64 81 113 46 255 40 333 24 71 21 22 353 329 327 350 32 136 188 102 82 86 126 184 208 217 241 323 288 323 329 307 277 130 134 53 301 23 33 26 22 52
270 306 76 68 289 103 309 46 24 4 75 86 355 72 279 335 348 340 336 347 137 121 124 130 218 220 229 235 316 339 302 257 301 314 243 164 113 75 4 24 50 15 344 36
243 261 93 142 50 46 23 40 33 40 65 51 311 111 303 6 314 30 35 62 87 115 129 162 220 338 305 326 335 344 288 280 294 279 283 13 67 45 52 7 351 331 340 30
344 348 340 33 71 17 58 49 1 17 19 189 282 59 238 337 1 31 85 62 58 81 102 148 175 233 307 321 293 288 260 276 280 345 36 52 51 42 38 5 17 360 1 7
54 12 359 323 65 163 63 105 130 102 145 247 349 116 316 222 28 69 71 77 66 52 34 340 320 273 263 285 318 348 43 37 71 63 52 54 62 60 47 34 9 14 11 353
132 60 151 61 16 63 321 41 176 120 53 67 315 327 307 51 57 61 71 76 80 88 90 257 289 301 326 353 47 95 86 70 75 71 64 62 52 49 44 39 33 9 1 339
197 97 37 346 13 31 77 65 40 22 78 95 317 331 273 68 90 80 82 91 97 82 91 65 49 59 56 73 59 56 55 65 61 58 52 59 60 64 63 48 27 4 333 342
105 88 338 42 1 228 356 10 33 110 116 143 173 313 12 139 169 110 142 124 109 58 32 62 53 37 55 64 56 49 49 71 65 59 58 59 42 34 26 22 3 353 344 345
68 114 78 211 287 0 42 68 87 113 295 73 134 289 346 249 155 132 126 112 63 35 44 80 66 36 54 57 54 59 63 73 68 78 81 59 37 26 27 17 1 350 350 349
140 41 68 346 353 22 79 273 153 105 43 122 68 272 280 290 30 353 82 32 43 75 53 47 52 40 62 83 73 68 82 102 124 108 73 53 36 32 24 10 6 4 360 347
78 118 145 176 205 142 329 303 209 111 102 260 170 165 238 303 82 228 45 64 76 82 90 66 47 34 54 92 87 74 68 87 83 74 69 63 41 30 9 7 7 4 350 346
94 103 119 215 118 154 189 227 226 145 153 141 179 165 204 219 214 183 313 73 80 74 54 64 64 41 38 67 68 61 78 90 67 59 60 49 28 21 13 18 7 349 352 352
11 145 86 21 181 179 357 353 99 87 131 76 139 184 189 226 247 145 43 95 75 71 49 65 71 59 37 71 91 75 75 82 53 59 66 45 24 14 5 9 4 356 357 0
76 102 66 297 23 82 24 336 92 85 58 156 187 190 162 211 213 166 112 104 111 105 68 106 86 65 67 88 100 92 99 80 56 68 48 37 18 16 5 9 7 360 3 9
118 89 97 213 26 52 233 339 106 106 78 93 105 161 176 176 175 145 159 127 115 103 79 118 91 64 51 42 62 88 71 47 62 42 34 36 21 11 347 17 1 358 3 8
206 106 68 109 124 330 356 11 29 123 36 252 149 138 164 149 85 35 115 126 141 124 128 144 117 91 73 55 59 72 57 44 55 23 21 27 20 7 2 3 347 347 5 15
58 65 107 86 125 192 232 251 236 83 336 241 140 160 162 142 110 249 146 128 101 100 131 130 110 112 97 75 90 72 55 52 39 332 22 15 14 8 360 352 345 331 355 29
44 29 115 96 144 283 248 262 340 109 232 186 154 141 157 144 171 160 145 102 121 124 130 130 121 126 155 124 110 95 76 52 340 5 16 9 2 356 12 352 355 356 23 38
158 129 133 96 92 300 198 146 168 206 221 119 126 149 105 108 115 124 115 97 84 95 109 136 129 135 233 111 105 102 71 10 7 3 355 359 360 0 21 25 8 18 26 35
12 172 176 170 209 227 198 176 145 147 139 157 137 127 123 118 118 120 119 85 64 107 93 149 137 125 12 87 110 103 350 15 18 358 353 353 6 28 29 36 26 24 23 33
325 150 111 89 292 197 159 80 134 134 146 140 132 133 127 131 138 120 110 70 50 96 76 121 140 126 89 102 99 119 79 52 27 24 6 358 8 14 31 34 38 45 40 33
220 64 110 28 19 63 69 144 149 153 131 129 140 144 140 131 139 134 111 79 85 126 93 104 141 150 131 117 109 108 71 58 44 31 355 355 356 17 359 9 354 12 237 140
351 195 138 209 220 145 214 173 164 147 160 154 132 113 125 129 134 124 119 107 134 135 156 123 148 147 132 146 153 160 101 94 66 17 356 344 341 3 343 337 329 240 254 200